顯示廣告
隱藏 ✕
※ 本文為 Knuckles 轉寄自 ptt.cc 更新時間: 2017-06-19 18:59:49
看板 Gossiping
作者 Sid5566 (喜德56)
標題
 [爆卦] 除了徐旭東的亞泥,他的亞東醫院也很狂

時間 Mon Jun 19 16:38:42 2017


原PO沒有權限,幫代PO

聽完她的陳述,真心覺得亞東醫院也是蠻狂的不輸亞泥阿
徐旭東經營真的是保證賺錢,各種犧牲就是千萬不要擋到他的利益啊

希望大家幫高調,記者你們敢不敢抄?
=================================================

夢中我聽到一位亞東醫院準備離職的護理長

她準備要離職了所以準備把這些東西都說出來


很多單位都是這樣,但是今天先說一個就好,大家想聽再繼續說

亞東醫院兒科加護病房的-曾護理長 以及她的好夥伴-高護理師

為什麼選這個單位呢?




因為這個單位的護理長最近在5月3日才剛接受朱立倫的表揚

原來壓榨護理師最兇的可以接受表揚往上爬,真得很棒

http://imgur.com/3wXhVP6.jpg
[圖]
 

(這張圖沒有她啦 不過上網找一下還是有)

院方高層也覺得她是一個很棒的管理人士,非常重視她


朱立倫.院方高層(徐旭東的快樂伙伴).曾護理師 這個聯手真得很棒

跟新北勞工局檢舉都不知道有沒有用


像我們這種官場文化不行,只會幫自己單位護理師說話的能當個護理長就應該是極限了

不像她們可能要升官,然後高護理師也想要升官就一起壓榨單位

其他單位的護理長知道的除了嘆氣也不知道能做什麼


1、超越無薪假的發明---付薪假

   如果今天單位病人沒有那麼多,就叫護理師放假,但是是用她們的特休放

   要是特休用完了呢,護理師還是得放,所以特休是單位的,不是你的

   但是要付錢給單位買一天假,還是強制喔

   這種超越吳主席得諾貝爾獎發明真的應該也要請吳主席給她頒獎了

   http://imgur.com/D3LavmG.jpg
[圖]
 

   (補上圖:醫院完全不敢具名,因為具名會出事啊XD)

   要是病人很多,需要加班怎麼辦?

   救人是你的天職啦,救人十幾個小時也應該,加班費你可以申請但是不會給你過。

   這樣高層就會覺得這單位真的棒棒,管理有方,以後有位置考慮提拔你。

   高護理師就跟著一起發布命令,要是這個護理長高升她就是護理長了。




2. 亞東醫院的白色恐怖---互相檢舉點數制

   這單位把「醫療就是服務業」貫徹到一個極致阿

   只要服務不好或是其他綠豆小事,同事之間也可以檢舉,

   檢舉人可以加1點,被檢舉的就扣一點,學姊各種檢舉你也不敢說什麼


   每一點就大概是200元。


   很多單位的護理長都是直接讓自己集滿點啦 大概多領個四五千元

   阿因為自己不願意跟他們一起這樣洗點數,所以就被冰起來了


   我們護理長大概每天都待在辦公室裡面做行政,也沒什麼在前線

   然後洗點數的可以到新北市頒獎,不洗的就被冰起來因為不在同一條船上


   民眾的服務是建立在壓榨醫護人員之上啊,服務好就會一堆人來

   就會有更多人來,徐旭東和他的快樂伙伴就可以賺更多錢




3. 每個月上班時數還沒開始上就先負時數---欠單位好幾個小時的上班時數

   還沒開始上班就先負好幾個小時很猛吧

   曾護理長是說這樣大家比較好放假啦

   那這麼棒的制度怎麼曾護理長沒有一起加入?

   所以需要加班到至少超過負的時候時後才能申請加班費、加點數等等

   但是申請加班也不見得能過,護理長又可以去跟高層說你看我棒棒

   和別的單位相比我用比較少的時間就可以做到這樣的事情



說太多也不知道會有多少人看


為什麼都沒有打醫師的部分???

很簡單啊,因為醫師不列入勞基法

所以就會出現「一切合法,沒有非法之虞」


請大家幫高調,雖然醫護人員現在很血汗

但是這麼血汗到這麼極限的大概也沒有幾間啦


我沒有期待這間醫院會好到什麼程度

但是至少不要壓榨到這麼誇張,這也是我最後能做的事情了。

相關內容會轉給林靜儀立委(之前是醫師)、洪慈庸立委(衛環)

新北勞工局如果還有良心就稍微做點事情吧




很多的護理長都是很照顧自己單位的,這種的都爬不上去

壓榨越兇這種人越往上爬就只會越壓榨護理人員

兩個人還一起唱雙簧還一邊說有多愛單位,真的是跟徐旭東說有多愛台灣一樣棒



院方不換把這些人換掉

我們就繼續把亞東醫院裡面的違法事情慢慢呈現出來

更好笑的是衛服部還發了一個勞動基準法下護理排班問答暨合理護理排班指引與範例

護理長帶頭違法,根本是讓我們其他人一起背鍋,然後衛服部也不管

醫師雖然沒有什麼違法的 就是因為現在沒有法律可管

所以更多的黑色遊戲壓到很多醫師都不要不要的


謝謝大家收看了


--
--
※ 發信站: 批踢踢實業坊(ptt.cc), 來自: 192.228.136.75
※ 文章代碼(AID): #1PHusLxz (Gossiping)
※ 文章網址: https://www.ptt.cc/bbs/Gossiping/M.1497861525.A.EFD.html
syldsk: 柯P下臺!1F 06/19 16:39
aJan5566: 高調2F 06/19 16:39
zxciop741: 小心被吉3F 06/19 16:39
cul287: 有卦有推4F 06/19 16:39
as74155: 推八卦5F 06/19 16:40
blazers08: 幫推喔6F 06/19 16:40
ryan0222: 又有人要下午打球啦7F 06/19 16:41
a1122334424: 還慢? 慢就沒人要看了8F 06/19 16:41
KeiJan: 幫基層護理人員QQ9F 06/19 16:41
lso5566: 幫高調10F 06/19 16:41
samyeh0316: 有掛有推11F 06/19 16:41
CH22: 推12F 06/19 16:42
uio55408133: 幫高調13F 06/19 16:42
theseller: 資進黨正常運作中14F 06/19 16:42
chenweichih: 穿辣一點的護士服去抗議 就會有人響應唷 我不是想物15F 06/19 16:42
kiffy: 優質八卦回來了16F 06/19 16:42
GameHeven: 推17F 06/19 16:42
ironkyoater: 這人只要有錢賺什麼事情都敢做?18F 06/19 16:42
chenweichih: 化  但這很現實19F 06/19 16:42
cream4260: 推!這些作為真誇張…20F 06/19 16:42
mistel: 高調21F 06/19 16:42
kuromu: ?22F 06/19 16:42
querencia 
querencia: 推23F 06/19 16:42
saureus: 沃24F 06/19 16:42
wakenpig: 付薪假XDDD25F 06/19 16:42
bzen9848: 推推!26F 06/19 16:43
fvbcgn124578: 幫高調27F 06/19 16:43
c90051kevin: Push28F 06/19 16:43
jorden: 付錢上班 付錢休假..........29F 06/19 16:43
bzen9848: 提醒原po,現在洪姊在交通委員會喔。30F 06/19 16:43
jerrey: 我呆都如此,除部分公家單位(戚戚焉31F 06/19 16:43
twelvethflor: 血汗護士進行中,上次彰基鬧很大。但有解決嗎?32F 06/19 16:43
pheiwoon: 高調33F 06/19 16:43
color1152: 卡34F 06/19 16:44
t012tw: 高調35F 06/19 16:44
lokazdszone: 高調36F 06/19 16:44
milfguy: 推37F 06/19 16:44
yuugen2: 高調38F 06/19 16:44
adon0313: 遠東集團正常發揮39F 06/19 16:44
kuzu: 狂40F 06/19 16:44
eipduolc: 花錢買假真的很棒41F 06/19 16:44
MMyDD: 去一次急診室再也不想去亞東42F 06/19 16:44
pkp: 頭壞掉了,身體也好不到哪去43F 06/19 16:44
joug: 推44F 06/19 16:44
twelvethflor: 有,彰基後來好像有調花花班跟該補的薪水45F 06/19 16:44
jo66: 卡46F 06/19 16:44
capazek: 好噁爛的制度47F 06/19 16:44
maple0425: 卡位48F 06/19 16:44
deyoude: 推49F 06/19 16:44
clever0705: 幫高調  記者還不來抄新聞50F 06/19 16:44
darling520: 高調51F 06/19 16:44
reaturn: 放心,絕對換不掉 最大的主子自已就那德性52F 06/19 16:44
ax9214258: 高調53F 06/19 16:44
twelvethflor: 建議可以鬧大一點。彰基有效,亞東我就不知道了54F 06/19 16:44
cul287: 先看哪家媒體敢報55F 06/19 16:44
stu25936: 亞東品質 不意外56F 06/19 16:45
lelingzi: 幫高調57F 06/19 16:45
sakon: 有掛有推58F 06/19 16:45
mnb1234: 反正總統態度都是這樣,也只能抱怨抱怨59F 06/19 16:45
terresa916: 高調ㄊㄨㄟ60F 06/19 16:45
reaturn: 而且換這個護理長,但制度跟本不會變,因是另一個上來61F 06/19 16:45
david54001: QQ62F 06/19 16:45
runslow:63F 06/19 16:45
zoe8616: 醫療人員自己也要站出來啊64F 06/19 16:45
JonDoe297: 推65F 06/19 16:45
leoon: 高調66F 06/19 16:45
f87199443: 下一篇:元智67F 06/19 16:45
yolin5460: 幫高調68F 06/19 16:46
CS5566:  0_069F 06/19 16:46
ariel780102: 扯 幫高調70F 06/19 16:46
knives24: 付錢休假 XDD71F 06/19 16:46
tony5361627: 幫高調!!72F 06/19 16:46
codehard: 卡73F 06/19 16:46
dd2367: 高調74F 06/19 16:46
redmoon2004: 好掛75F 06/19 16:46
danielqwop: 要就一次用大一點76F 06/19 16:46
mbttar25: 付錢休假ㄟXD 果然人不要臉天下無敵77F 06/19 16:46
onerepublic1: 高調78F 06/19 16:47
px37521: 扯79F 06/19 16:47
taowoman: 幫高調 希望媒體繼續深入調查80F 06/19 16:47
jackyiloveu: 查無不法,謝謝指教81F 06/19 16:47
leoncleaner: 高調82F 06/19 16:47
mayjan 
mayjan: 我記得柯的老師跑到這裡去 我看柯的老師也是幫手83F 06/19 16:47
〈台北都會〉急診滿床 亞東病患躺地待醫 - 地方 - 自由時報電子報
[圖]
新北市板橋亞東醫院因急診室床位不足,只好先將等待診療的病患暫時放在地板上,院內醫護人員將這一幕拍下來PO在FB上,引發網友熱烈討論;院方坦承,急診室床位不足時,的確可能出現這種狀況,目前正在擴建第二醫療大樓,預計明年啟用。醫護PO文 ...

 
kimos: 高調85F 06/19 16:48
vicklin: 付錢休假是哪招..86F 06/19 16:48
kuzu: 狂87F 06/19 16:48
Wittyjin: 幫高調~~88F 06/19 16:48
lulocke: 怎麼可能新北勞工局敢查 市長才剛稱讚過 你就要他自表89F 06/19 16:48
rodrick88: 狂90F 06/19 16:48
QQKM: 誇張...91F 06/19 16:48
secret1414: 幫膏掉92F 06/19 16:49
HolaDiego: 狂93F 06/19 16:49
ox1005:94F 06/19 16:49
gsw1728: 哇,超越諾貝爾靠這個了。。。95F 06/19 16:49
Ftou: http://i.imgur.com/KBfBUmC.jpg96F 06/19 16:49
polotower: 記者上班囉!97F 06/19 16:49
ian90911: 太狂98F 06/19 16:49
erikanofann: 請柯P自請下台好嗎99F 06/19 16:49
just5566: 推100F 06/19 16:49
harrishu: 高調101F 06/19 16:49
kyukyu: 高調102F 06/19 16:49
Nitration: 高調103F 06/19 16:49
MarXXXX:104F 06/19 16:49
psypoorer: 高調105F 06/19 16:50
johnang: 推 有料106F 06/19 16:50
bp6jo30111: 高調107F 06/19 16:50
jack22661: 高調108F 06/19 16:50
secure179: 推掛109F 06/19 16:50
alex94539: 不自殺聲明呢?110F 06/19 16:50
squard: 遠東的觸角真是廣,高層為了私利壓搾員工,唉唉慘慘慘111F 06/19 16:50
beaskywalker: 你怎麼會期待新北勞工局112F 06/19 16:50
cheetahspeed: 醫院日常呵呵113F 06/19 16:50
BRANFORD: 哇噻114F 06/19 16:50
rutp6j35566: 推115F 06/19 16:50
NN9: 高調116F 06/19 16:51
bich09251690: 幹你娘 妓者不敢抄啦117F 06/19 16:51
ttgg: 推118F 06/19 16:51
jezz9740: 記者真的該表現的機會啊119F 06/19 16:51
danorken: 高調  不過這新聞炒不起來120F 06/19 16:51
mj2124: 資動部也說一例假如果要加班8hr,你只能加3hr,要額外請假5121F 06/19 16:51
rickey1270: 推,真的是垃圾122F 06/19 16:52
g30f68: 幹你娘 有夠噁心123F 06/19 16:52
mj2124: hr,特休必須要經過主管同意,有問題自己跟老闆說124F 06/19 16:52
DarkyIsCat: 高調125F 06/19 16:52
pilodee: 高126F 06/19 16:52
Niubert: 看起來亞泥還不夠扯127F 06/19 16:52
AUwalker: 不爽就離職128F 06/19 16:53
octangus07: 高調129F 06/19 16:53
theophaneia: 幫高調130F 06/19 16:53
k1222: 可怕131F 06/19 16:53
Antstom: 高調132F 06/19 16:53
alchemi: 徐旭東他媽的逼133F 06/19 16:53
afucanfly: 幫妳高調134F 06/19 16:54
ducamao: 講難聽一點衛福部自己都只想河蟹這方面的問題了135F 06/19 16:54
tmuaircat: 徐董應該沒在鳥這沒啥營收的機構吧 應該是高層惡搞吧136F 06/19 16:54
ecnecsinimer: 要有很明顯的證據記者才敢抄啦,現在記者不太挖137F 06/19 16:54
sharkimage: 不意外138F 06/19 16:54
ecnecsinimer: 新聞了139F 06/19 16:54
DanielHAO: 垃圾胖子東140F 06/19 16:54
Alex8888: 高調141F 06/19 16:54
ukgary331: 推! 都推142F 06/19 16:54
m6699: 推爆143F 06/19 16:55
trashpoking: 推 ..144F 06/19 16:55
angell543: 垃圾...145F 06/19 16:55
rstears11: 高調146F 06/19 16:55
ETTom: 有八卦幫推 也太黑暗了吧XD147F 06/19 16:55
gpbp2266: 有掛有推148F 06/19 16:55
CowBaoGan: 高149F 06/19 16:55
eterbless: 付薪假是三小 太神了吧150F 06/19 16:55
lwo005: 推151F 06/19 16:56
Mood10207: 推!152F 06/19 16:56
Enger: 幹 超噁153F 06/19 16:56
cool189: 如果是真的那太扯了 高調154F 06/19 16:56
zlot: 高調155F 06/19 16:56
Sony2470GM: 噓噓東就是垃圾156F 06/19 16:57
NARUHOTO: 幫高調157F 06/19 16:57
dai26: 嗆記者不敢抄啦158F 06/19 16:57
greensaru: 高調159F 06/19 16:57
chara117yun: 新北市推160F 06/19 16:57
hhtj: 推161F 06/19 16:57
quick01: 推162F 06/19 16:57
ishiki: 亞東沒啥營收? 不要講出來讓人笑啊163F 06/19 16:58
linshuan4429: 朱跟媒體這麼好 記者不會抄啦164F 06/19 16:58
peilou: 幫高調165F 06/19 16:58
milkbread: 要有明確一點的證據吧 不然整篇都純粹聽說而已166F 06/19 16:58
milkbread: 你要記者怎抄
marco741030: 高調168F 06/19 16:58
cd6704ab: 推169F 06/19 16:58
wtf426: 真的啦 不爽就離職 我完全同意170F 06/19 16:58
keelpie: 還沒看先推,住附近的都知道打死不去亞東看病,爛到靠北171F 06/19 16:59
canonM10: 記者敢不敢抄啊~172F 06/19 16:59
wtf426: 如果是薪水超高 還是一堆人去的相信我173F 06/19 16:59
tlsg2: 狂174F 06/19 16:59
chunglee: 有掛有推175F 06/19 16:59
Dacamiya: 推176F 06/19 17:00
ishiki: 不去門診是沒差 但是你急診也只能往那邊送啊177F 06/19 17:00
or0706555: 推178F 06/19 17:00
heinse: 高179F 06/19 17:01
SinPerson: 很多血汗職務,都看得到自己人欺負自己人的痕跡,像會180F 06/19 17:01
sunnylai: 呵呵~好和樂的工作環境啊181F 06/19 17:01
modulation: 高調182F 06/19 17:02
darkwindwind: 天阿……目前聽到最糟糕的,難怪認識的畢業都沒人去183F 06/19 17:02
rockday: 靠北阿付薪假是三小阿184F 06/19 17:02
darkwindwind: 亞東@@185F 06/19 17:02
terminator3: 高調 垃圾噓噓東 操你186F 06/19 17:02
yvonne10126: 幫高調187F 06/19 17:02
PONANZA: 幫高調188F 06/19 17:02
Dreampen: 這是愛台灣的表現 你不懂189F 06/19 17:02
c38515103: 幫高調190F 06/19 17:03
ppBOSSqq: 幫高調啦 記者開始當烏龜喔 只會抄露奶短髮妹191F 06/19 17:03
starfishkira: 推192F 06/19 17:03
loCoal246: 高調193F 06/19 17:03
palina: 付錢休假真是天才 幫高調194F 06/19 17:03
selasdy: 考慮今年退遠傳195F 06/19 17:04
scm6310: 付薪假 讚讚讚!! 台灣再次獨步全球!!196F 06/19 17:04
lau6m2002: 最噁心至極的噓噓東197F 06/19 17:04
sclbtlove: 垃圾醫院不意外  住這裡的寧願跑到台北市也不會去亞東198F 06/19 17:04
asdfzx: 高調 徐根本垃圾199F 06/19 17:04
yniori: 高調推~~反正朱倫不會理你們!你們要好自為之200F 06/19 17:04
TommyWu1991: 高調 幹 太扯了201F 06/19 17:05
quantumsheep: 靠 高調202F 06/19 17:06
csfgsj: ~~203F 06/19 17:06
※ 編輯: Sid5566 (192.228.136.75), 06/19/2017 17:08:29
liu30613: 幫高調204F 06/19 17:06
abonbon: 幹護理真的超可憐的205F 06/19 17:06
quantumsheep: 居然還有用薪水買假的206F 06/19 17:06
APC: 蓋207F 06/19 17:07
tribula: 他老兄根本沒在怕  到時跟政府一起修法就可以通過了208F 06/19 17:07
colenken: 黑心的極致啊209F 06/19 17:07
yulin0312: ...210F 06/19 17:07
hate56: 真是一群愛台灣的人呢211F 06/19 17:07
bobohuang378: 推高調212F 06/19 17:07
arrakis: ......這三小...???213F 06/19 17:08
pistons0604: 付薪假…真他媽狂啊!214F 06/19 17:08
ilover: 最愛臺灣的老闆,查無不法215F 06/19 17:08
kskid: 幫高調216F 06/19 17:08
ZXKUQYB: 江浙財閥就是狂啊~~~~~~217F 06/19 17:08
zenuo: 新北有夠衰218F 06/19 17:08
phix: 馬的 醫院有這摸不賺錢嗎?需要這摸摳219F 06/19 17:08
Bijala: 好猛220F 06/19 17:09
Noel7788: 推221F 06/19 17:09
azxcvbnm106: 你和你朋友的不自殺聲明趕快po上來!222F 06/19 17:09
jason791227: 女友在亞東給這篇大推 這篇句句屬實 亞東爛醫院無誤223F 06/19 17:09
nnsc: 咦,這間不是醫學中心嗎224F 06/19 17:09
lang05960924: 推225F 06/19 17:09
bluewindwmg: 應該給林淑芬吧!226F 06/19 17:10
bluewindwmg: DPP最後良心
chancing: 這也太強大了228F 06/19 17:10
Cyclo: 不意外229F 06/19 17:10
polouucc: 狂230F 06/19 17:10
lolipopo: 新北231F 06/19 17:10
y7moremore: 我要看第二集232F 06/19 17:10
wahahajohn: 高調推233F 06/19 17:10
nanana313: 推234F 06/19 17:11
q20w40e60r80: 咖235F 06/19 17:11
gsn925104: 高調236F 06/19 17:11
Tenging: 亞東根本把基層當百貨櫃姐在用237F 06/19 17:11
iewix: 記者快來抄啊238F 06/19 17:11
jerrypiggy: 不愧是噓噓東239F 06/19 17:12
yankeehater:240F 06/19 17:12
squard: 頂新=遠東,都是無良老闆241F 06/19 17:12
violetflames: 早知道我就接遠傳電信的廣告電話242F 06/19 17:12
jimmy411060: 高調 太狂了243F 06/19 17:12
Alex53197: 高調244F 06/19 17:12
michaelch: 這種水準 還想昇醫學中心XDDDDD245F 06/19 17:12
Jonny5: 好扯246F 06/19 17:12
CmDawn: 朱市長的新北怎麼可能有問題247F 06/19 17:13
metagile: 微薄之力,幫高調!248F 06/19 17:13
Basssky: 推249F 06/19 17:13
speed364: 廢物東250F 06/19 17:13
c98406023: 徐旭東政商關係比魏家人來的更好251F 06/19 17:13
feng0312s: 幹幫推252F 06/19 17:13
tw88: puuuuuush253F 06/19 17:13
lyu0001: 推254F 06/19 17:13
fengchierh: 推255F 06/19 17:13
LWEN: 噓噓東256F 06/19 17:13
namtar: 沒有朱市長護航 怎麼可能做得到257F 06/19 17:14
nabecat: 聽話的狗奴才 才有資格升大總管 cc258F 06/19 17:14
jeneaqa1: ....259F 06/19 17:14
wahahajohn: 小心被自殺260F 06/19 17:14
a354221: 高調261F 06/19 17:14
ae321238: 付薪假金恐怖262F 06/19 17:14
janitor: 推263F 06/19 17:14
alex9708hero: 推264F 06/19 17:14
xdctjh: 管理天才265F 06/19 17:14
mmaa: 朱下臺266F 06/19 17:15
iorittn: 有卦267F 06/19 17:15
hipmyhop: 幹這次要讓噓噓東痛一下268F 06/19 17:15
modulation: 醫院省點錢 才能在山上人造湖養魚呀 懂?269F 06/19 17:15
mightymouse: 就擴張太快護理師不夠,所以研究出自己的玩法270F 06/19 17:15
mengshiue: 觀望中271F 06/19 17:16
homeaki: 高調272F 06/19 17:16
Cabbage159: 高調273F 06/19 17:16
u9161031: 高調274F 06/19 17:16
Insatiable: 高調!275F 06/19 17:16
lulocke: 有誰比我愛台灣 阿 ? 再吵就把護理師丟去湖裡276F 06/19 17:16
kyhkyh: 高調277F 06/19 17:16
aborwang: 推278F 06/19 17:17
NEX4036: 推 恐怖的工作環境279F 06/19 17:17
colinfeng: 遠東集團根本台灣毒瘤啊280F 06/19 17:17
CriminalCAO: 記者不敢抄啦,你要注意安全,黨什麼都做得出來281F 06/19 17:17
horse175: 幹...超八卦.....282F 06/19 17:17
lso5566: 那個圖也太誇張.....還真的有單子283F 06/19 17:17
crazywiwi: 推284F 06/19 17:17
timexer: 推285F 06/19 17:17
abibas5566: 惡質到不知道該說什麼286F 06/19 17:17
crazyhoho: 噓噓東真的超愛錢 政府也沒他法287F 06/19 17:17
schumi7401: 買假亞東早行之有年 積一年賣有快萬 好棒棒288F 06/19 17:18
jackyiloveu: 儲蓄東不醬子要怎麼儲蓄啦~289F 06/19 17:18
gadoma: 花錢買假還真的是第一次聽到耶!290F 06/19 17:18
p1227426: 高調 護理人員那麼缺 就不要去那家就好291F 06/19 17:18
lpb: 我靠,付薪假!292F 06/19 17:18
StanQoo: 付薪假也太狂293F 06/19 17:18
vivian5171: 高調294F 06/19 17:19
gotornado: 高調有啥洨用? 政府還是對他無可奈何啊 他還不是笑呵呵295F 06/19 17:19
aragonite: 高調!扯296F 06/19 17:19
StanQoo: 跟我小時候存錢想買爸媽一天有87%像297F 06/19 17:19
rock2601: 高調298F 06/19 17:19
asdf8hjkl: 好扯==299F 06/19 17:19
theteddybear:300F 06/19 17:19
hkai: 幫護理人員QQ301F 06/19 17:19
df900127123: 高調302F 06/19 17:20
toto0202: 台灣勞工真好欺負 哈哈哈303F 06/19 17:20
bluesofsky: 誇張304F 06/19 17:20
qaz223gy: 高調305F 06/19 17:20
x0003: DPP再給我護航看看啊306F 06/19 17:20
psypoorer: 噓噓東307F 06/19 17:20
potatofat: 全台灣醫院都有自己的工時玩法 全部都合法喔308F 06/19 17:21
bear8019: 幫高調啦309F 06/19 17:21
Ultramarine: 不EY310F 06/19 17:21
paul10404: 超猛付薪假,以後應徵要不要先給10萬押金?311F 06/19 17:21
ck220708: 去問問護理人員 第一點連某些公立醫院都在玩類似的花招312F 06/19 17:21
HAYABUSA1207: 高調313F 06/19 17:21
wwg: 護理部是機掰集大成314F 06/19 17:21
coldqoo: 原po最近不要搭飛機,不要用水泥,小心爆炸,然後,你的315F 06/19 17:22
coldqoo: 不自殺聲明ㄋ
nafeiyin: 推317F 06/19 17:22
TZofHES: 紅明顯,幹記者快抄啊318F 06/19 17:22
first5252000: 高調 超誇張319F 06/19 17:22
ck220708: 剛剛是噓台灣醫療慘業非噓原po320F 06/19 17:22
cj010811: 推321F 06/19 17:22
mnvcxz: !322F 06/19 17:22
hsnuKaka: 無恥!323F 06/19 17:22
screamyy: 有掛有推324F 06/19 17:22
a122112259: 推325F 06/19 17:22
chng8371: 愛買 遠百 遠傳 遠航 包山包海了326F 06/19 17:22
HAYABUSA1207: 亞東醫院暫不去了327F 06/19 17:22
Yoshihiro: 老闆噓噓東 完全不意外328F 06/19 17:22
AAsoon: 高調  讓它爆329F 06/19 17:23
mglynite: 垃圾走到哪還是垃圾330F 06/19 17:23
lucky96plokm: 幹這有夠扯331F 06/19 17:23
zacklee0630: 推332F 06/19 17:23
JackaLMeI: 付薪假和一般事假差在哪?333F 06/19 17:23
LoveEarth: 一切都是誤會啦334F 06/19 17:23
fattyeddie: 八卦回來了!335F 06/19 17:24
Eoamberf: 醫院很常使用4週變形工時,搭配1日出勤扣休息時間…內336F 06/19 17:24
penguin72123: 亞東就爛醫院啊337F 06/19 17:24
Eoamberf: 行的就知道我在說什麼…338F 06/19 17:24
Honeycan: 高調推339F 06/19 17:24
lfi: 高調340F 06/19 17:24
alice711004: 哇 真的很狠341F 06/19 17:24
k0938773318: 推342F 06/19 17:24
naushtogo: 亞東好棒棒343F 06/19 17:24
followmeyo: 推344F 06/19 17:24
Mradult: 真的蠻狂的,我以為到了南部醫院345F 06/19 17:25
mickylovesme: 幫基層推346F 06/19 17:25
max60209: 推 東哥這種愛法真的很棒347F 06/19 17:25
charmingpink: 高調 付薪假諾貝爾獎沒什麼問題了348F 06/19 17:25
alex12283: 幫高調 噁心349F 06/19 17:25
btmep: 愛台(X) 愛新台幣(O) btw 更愛人民幣350F 06/19 17:26
cww7911: 狂351F 06/19 17:26
a05115237: 噓噓東真的很噁心 是有沒有那麼死愛錢352F 06/19 17:26
a3900656: 先幫高調353F 06/19 17:26
aids893001: 記者不敢抄啦 只敢抄無聊的東西354F 06/19 17:27
tomzakeru: 呵呵355F 06/19 17:27
wkheinz: 護理師真的很辛苦 在醫院就知道356F 06/19 17:27
Mradult: 難怪輪班須隔11小時會被擋了,不血汗經營不下去357F 06/19 17:28
twbd: 噓噓東358F 06/19 17:28
Wasining: 記者 抄起來359F 06/19 17:28
rcaspd: 幫高調,真是吃人不吐骨頭的醫院!!!360F 06/19 17:28
icelandguard: 欠休買回應該不是只有一家哦 呵呵361F 06/19 17:28
zycomplex: 高調362F 06/19 17:28
sharkshana: 高調 同為醫療相關人員 這種垃圾363F 06/19 17:29
GGBronze: push364F 06/19 17:29
coie7778: 付薪假 該得諾貝爾獎了365F 06/19 17:29
Moratti: 好噁心 財團不吸台灣人的血是不會做生意366F 06/19 17:29
happ: 噓噓東:嗯~我們多餘的水泥終於有用途了367F 06/19 17:29
weakerman: 這在台灣多數的醫院算是常態了,前女友以前在台中某醫368F 06/19 17:29
ndtoseooqd: 高調369F 06/19 17:30
qaz0314: 幫推370F 06/19 17:30
weakerman: 院也是這樣,花錢買時數根本超英趕美371F 06/19 17:30
kenlin0105: 來抄ㄚ372F 06/19 17:30
kenndy: 推373F 06/19 17:30
HTC0: 高調374F 06/19 17:30
a7173661736: ? 先幫高調375F 06/19 17:30
h8565656p: 我還在那出生,真對不起這些人員...376F 06/19 17:30
morphology: 高調377F 06/19 17:30
duckling4343: 看看遠東集團在板橋有多少地378F 06/19 17:31
AncientLich: 真是搞自己人自內行379F 06/19 17:31
happyyolk: 靠...壓榨成這樣380F 06/19 17:31
gs951117: 高調381F 06/19 17:31
seablue421: 幫高調,噓噓東,台灣真的不需要你的愛,能滾多遠就滾382F 06/19 17:31
sidney1298: 超越諾貝爾獎 我笑了383F 06/19 17:32
seablue421: 多遠吧384F 06/19 17:32
bhsugar: 新北市勞工局剩下打掃跟接線工讀生了嗎385F 06/19 17:32
coubala: 高調386F 06/19 17:32
loet: 推387F 06/19 17:33
ace4: 付錢給資方才能放假?真的夠了388F 06/19 17:33
wih512: 要得諾貝爾奬 這hen可以389F 06/19 17:33
p123yt: 高調390F 06/19 17:33
ilycw: 記者大概不敢抄391F 06/19 17:33
roxcido: 推392F 06/19 17:33
stanleyliutw: 推了啦393F 06/19 17:33
Tamama56: 幫高調394F 06/19 17:34
AngelMAyCry: 亞東原來是他的,幹395F 06/19 17:34
makkapakka: 白色巨塔真恐怖…396F 06/19 17:34
toboldlygo: 用力爆 看誰還敢去亞東看診 醫護操成這樣 就應該讓它397F 06/19 17:34
vfhiroki: 高調398F 06/19 17:34
toboldlygo: 倒399F 06/19 17:34
Mradult: 護理師人那麼多是都被分化了嗎?這種制度竟然能忍受400F 06/19 17:34
meyu1166: 推401F 06/19 17:34
orfan: 這爆出來 資動部會先幫擬藉口說沒有違法 然後全台灣就照抄402F 06/19 17:35
gjo3gjo3gjo3: 高調403F 06/19 17:35
sheepbear: 高調  噓噓東真的跟KMT一樣是台灣毒瘤404F 06/19 17:35
kiwi0530: 檢舉主管啊,一群畜生405F 06/19 17:35
lca096: 先幫高調406F 06/19 17:35
XseraphimX: 好看,高調407F 06/19 17:35
orfan: 它們玩法很簡單: 你不讓我這樣玩 我就拿病人權益當擋箭牌408F 06/19 17:36
poltmer990: 打倒以徐旭東為首的慣老闆集體!409F 06/19 17:36
digodi: 能超越無薪假的只有有薪假~410F 06/19 17:36
smashup: 高調411F 06/19 17:36
f09232002: 推喔412F 06/19 17:36
EarthLegacy: 如果我有親人被這樣對待,肯定讓他們不得好死?。413F 06/19 17:36
poltmer990: 台灣萬歲!合理薪資萬歲!民主自由萬歲414F 06/19 17:36
Avis56: 前單位推415F 06/19 17:37
weakerman: 不需要資動部出來洗地全台照抄喇,在很多醫院早是常態416F 06/19 17:37
ineedpeepee: 高調417F 06/19 17:38
boydance: 幫高調418F 06/19 17:38
Moratti: 難怪 這麼多財團要開醫院 做善事419F 06/19 17:38
fragmentwing: 高調420F 06/19 17:39
eec2132469y: 高調  這種人真該去死421F 06/19 17:39
john1263: 同為醫療業 這真的是常態 大部分你說的出來的醫院都是這422F 06/19 17:39
mave0: 高調423F 06/19 17:39
apple7685: 噁心424F 06/19 17:39
daviddwlee84: 幹好扯425F 06/19 17:39
john1263: 麼黑!問題是檢舉有用嗎?爆出來有用嗎?高層ㄏㄏ兩聲繼426F 06/19 17:39
s1777001: 推427F 06/19 17:39
john1263: 續爽賺428F 06/19 17:39
vicious666: 扯429F 06/19 17:40
PPPGGG: = =這也太慘430F 06/19 17:40
chink5566: Good 推431F 06/19 17:40
twsmcc 
twsmcc: 推個432F 06/19 17:41
jackie0804: 高調433F 06/19 17:41
Herbert1102: 幫推434F 06/19 17:41
mutwilly: 黑色巨塔!435F 06/19 17:42
L78G: 推啦 ,把噓噓東垃圾集團的垃圾事通通爆出來436F 06/19 17:42
ksan6960: 高調437F 06/19 17:42
r2238: qq438F 06/19 17:42
NEWSTAY: 太優質了吧 強迫休假要自己買439F 06/19 17:43
orfan: 那些高層 就是以前說醫師不等於勞工 不可用勞基法的世代440F 06/19 17:43
Mradult: 護理師版"高層那麼帶種請自己下來卡班"好幾年沒變了441F 06/19 17:43
orfan: 結果反而用這樣機會 現在來壓榨自己的學弟妹442F 06/19 17:43
cores:443F 06/19 17:43
husky880531: 高調444F 06/19 17:43
pp688039: 高調,我看記者不敢抄445F 06/19 17:44
henrysu1625: 推 這才是八卦版446F 06/19 17:44
iMANIA: 高調 要除掉這種噁心文化447F 06/19 17:44
horseorange: 超扯448F 06/19 17:44
classic112: 垃圾鬼島專養垃圾449F 06/19 17:44
OrzXXXqoo: 不自殺聲明呢450F 06/19 17:44
vickieivy: 可惡幫高調451F 06/19 17:44
plumbers007: 推452F 06/19 17:45
happydo: 勞檢局會出馬嗎453F 06/19 17:45
davidbright: ...454F 06/19 17:45
Shin722: 比較訝異這種醫院 醫療和服務會很好嗎? 早就倒了吧455F 06/19 17:45
cutemouse: 高456F 06/19 17:45
denniss: 高調457F 06/19 17:45
ron761230: 推458F 06/19 17:45
hancao0816: 高調459F 06/19 17:46
uni19ball: 恐怖呀~460F 06/19 17:46
asuka666: 高調461F 06/19 17:46
chris44099: 好扯…462F 06/19 17:46
princetamaki: 幫高調463F 06/19 17:47
naosuki: 高調464F 06/19 17:47
yan1979: 幹 血汗沒有極限465F 06/19 17:47
william9: 扯466F 06/19 17:47
alice0107: 這種記者不敢抄啦467F 06/19 17:48
anendfox: 真的高調 幹你娘付錢休假超雞巴468F 06/19 17:48
kengoptt: 高調469F 06/19 17:48
sputniky: 高調470F 06/19 17:49
hitman0527: 第一點長庚也有類似用特休來強迫批假471F 06/19 17:50
jeter0209: 這些垃圾的吃相真的有夠噁472F 06/19 17:50
aaron8825252: 高調473F 06/19 17:50
imning: 槓474F 06/19 17:51
jojomickey2: 之前護航徐的現在都躲起來了,一個靠特許賺錢的商人475F 06/19 17:51
jojomickey2: ,公司一定無良的
ken32293355: 幫高調477F 06/19 17:52
wate5566: 侯市長又要出來坦了 呵呵478F 06/19 17:52
phoebe9517: 推479F 06/19 17:52
DevilCool: 噁心480F 06/19 17:53
GaRx: 藍綠和解481F 06/19 17:53
frozehead56: 高調啦!!482F 06/19 17:53
karnoel: 亞東喔...哈哈 真的還有很多可以爆呢XD483F 06/19 17:53
pwh17: 推484F 06/19 17:53
PTTakatsuki: 讚485F 06/19 17:54
octopuso1c: 幫推,有點誇張...486F 06/19 17:54
aquarius212: 柯批為什麼你都不管!!!!!!!!XDDDDD487F 06/19 17:54
ZXKUQYB: 記者媒體都是江浙財閥直接或間接飼養的 怎會期待他們抄?488F 06/19 17:54
lanmei: 幫高調489F 06/19 17:55
xmoonlight: 要爆快爆 不信只有 遠東集團有 XD490F 06/19 17:55
abab6111: 幹你娘垃圾491F 06/19 17:55
elliotpepe: 高調492F 06/19 17:55
arthurx94: 血汗493F 06/19 17:55
mysunsun: 扯爆494F 06/19 17:55
rainbowJJ: 幫高調495F 06/19 17:56
wensly123: 高調496F 06/19 17:56
b2322858: 高調497F 06/19 17:56
oldheadneo: 付薪假太狂了吧…498F 06/19 17:57
miura105: 各私立醫院常態XD499F 06/19 17:57
icexfox: 高調500F 06/19 17:57
Ayenyen: 幫高調501F 06/19 17:57
slimfat0202: 幹,財團各種嘴臉,然後靠北台灣投資環境不友善502F 06/19 17:58
lovesleep68: 付薪假,之到護士血汗,沒想到...503F 06/19 17:58
jamison04: 幫高調504F 06/19 17:58
LaserLi: 高調505F 06/19 17:58
flushwing: 幹這種事是人做的嗎506F 06/19 17:58
jazzcai: 高調507F 06/19 17:59
vo5566: 付錢休假 記者還不來508F 06/19 17:59
top4116: 長知識了...原來可以這樣玩509F 06/19 17:59
Rong13: 高調510F 06/19 17:59
buddar: 高調511F 06/19 17:59
jilcc: 幫推高調512F 06/19 17:59
karnoel: 江浙財閥在台灣就是狂喇513F 06/19 18:00
wewens: 扯514F 06/19 18:00
kisspanda: 高調515F 06/19 18:01
kevininla: 高調516F 06/19 18:01
kkevinn: 幫高調 記者快來抄517F 06/19 18:01
asd70208: 樂圾人做垃圾事 下地獄吧518F 06/19 18:01
amritavoice: 高調!小心人身安全啊!519F 06/19 18:01
Xuan0313: 八卦回來惹520F 06/19 18:01
paulshain04: 推 血淚521F 06/19 18:02
peter28222: 噓噓東 :我愛台灣522F 06/19 18:02
calvin0319: 有夠鬼扯523F 06/19 18:02
Firsss: 可悲524F 06/19 18:02
laidarshin: 痾,推525F 06/19 18:02
lale96530: 高調526F 06/19 18:02
kipi91718: 台灣有哪間醫院是真的有良心的嗎527F 06/19 18:02
q2520q: 這種制度真的很扯528F 06/19 18:02
silent328kn: 9.2遺毒529F 06/19 18:03
shi21: 哇靠,真的有扯到,必需高調530F 06/19 18:03
ss367886: 幫高調531F 06/19 18:03
suhaw: 跟JULI倫有關 這就不意外了532F 06/19 18:04
mekiael: 台灣司法遇到財團就轉彎  別抱太多期望533F 06/19 18:04
chamomile050:534F 06/19 18:04
Lian: 所有的醫院都來爆一爆吧535F 06/19 18:04
JessicaA1ba: 垃圾噓噓東536F 06/19 18:04
Shermie: 噓噓轄下什麼鬼事沒有537F 06/19 18:04
kevin85421: 扯538F 06/19 18:05
kkk0j: 高調,笑記者不敢抄539F 06/19 18:05
ace92150: 這一定要高調啊 付薪假超扯0.0540F 06/19 18:05
Soros1989: 2那點 一個單位要用這樣方式管理超級可悲541F 06/19 18:05
darkage: 推 QQ 悲慘世界 QQ542F 06/19 18:05
dcggj2394: 逼人花錢買假..543F 06/19 18:05
tay1021: 推544F 06/19 18:05
WuWei07: 高招! 他媽誰想到啊545F 06/19 18:06
wisk: 鬼島無誤阿~546F 06/19 18:07
RedInk: 太誇張了,不友善到這種地步...547F 06/19 18:07
raindayla: 花錢放假是哪招......548F 06/19 18:08
sa4567892000: 太誇張了吧.............549F 06/19 18:08
kina: 好狂喔...550F 06/19 18:08
g60710: 靠  付錢買假哩  高調551F 06/19 18:09
coastline30: 推推552F 06/19 18:09
jetalpha: 有卦有推553F 06/19 18:10
wuxin: 天...天才啊554F 06/19 18:10
hellosuguer: 高555F 06/19 18:10
handlesome: 高調556F 06/19 18:10
votewithfoot: 垃圾噓噓東557F 06/19 18:11
PeterLu98: 記者這麼自律  哪會抄這種後臺這麼硬的558F 06/19 18:11
votewithfoot: 台gg都3奈米了他還再50年前的挖水泥559F 06/19 18:11
sbwang8: 只能推了560F 06/19 18:11
votewithfoot: 科技上太空他還在挑分糞殺豬公561F 06/19 18:11
wsx7516twtw: 高調562F 06/19 18:11
catknight: 幫高調啦563F 06/19 18:11
lkhtok: 第一點。。。564F 06/19 18:12
hicjgogogo: 一定沒事565F 06/19 18:12
wmaledizione: 我以為花錢買假早就行之有年...566F 06/19 18:12
fraser0136: 我...不敢去這種醫店567F 06/19 18:12
MidoBanA: 高調568F 06/19 18:12
h73o1012: 妖獸毒569F 06/19 18:12
ubcs: 推 諾北爾獎一怨啊570F 06/19 18:13
bill91305: 高調571F 06/19 18:13
imsphzzz: 開始追殺囉~蠢吱們跟上572F 06/19 18:13
Galiburn: 媽的醫店573F 06/19 18:13
ymcee: 高調574F 06/19 18:13
nick861211:575F 06/19 18:13
harry881210: 高調 真的垃圾576F 06/19 18:13
jkl456: 高調577F 06/19 18:13
faker007: 說個笑話 台灣醫療環境578F 06/19 18:14
Shadouie: 沒有最誇張  只有更誇張 鬼島94狂啦579F 06/19 18:15
direwolf17: 高調580F 06/19 18:16
RoverFrank: 高調581F 06/19 18:16
weier08: 高調!怎麼不向北市勞工檢舉???582F 06/19 18:16
juust: 推583F 06/19 18:16
Reasonero: 再推584F 06/19 18:17
aa00064652: 高調585F 06/19 18:17
bonie567: 高調586F 06/19 18:17
bmchaos: 幹587F 06/19 18:17
shuffle030: 好八卦588F 06/19 18:17
GGisme: 我說老實話,一百間醫院大概有99.5間嚴重違法,各位請自己589F 06/19 18:18
GGisme: 照顧好自己,祈禱不要生病
bab7171: come on!我比誰都會壓榨台灣591F 06/19 18:18
jugularnotch: 前面說醫院不賺錢的,是真的毛利率不高,但現金流超592F 06/19 18:18
jugularnotch: 大好週轉啊Xd
a060146252: 高調594F 06/19 18:18
princeguitar:       記者不敢持續報導啦 都領人錢 哪來的專業操守595F 06/19 18:18
Pictor: 這要告高調一下596F 06/19 18:18
ello162: 扯 幫高調597F 06/19 18:19
gungia: 推598F 06/19 18:19
ctes940008: 諾貝爾獎599F 06/19 18:19
jun30: 怕600F 06/19 18:20
silence569: 噓噓東果然是經營之神啊601F 06/19 18:20
keyman2: 高調推602F 06/19 18:20
blackkt: 幫高調603F 06/19 18:20
fewhy: 付薪假不就是無薪假嗎?? 難道薪水是照時數算的?604F 06/19 18:20
litwild: 新北勞動局?  有這單位? 沒有吧605F 06/19 18:20
lovesleep68: 幫高調,付薪假,就是把時薪那套拿來玩606F 06/19 18:20
mp60707: 南部工廠開始有樣學樣607F 06/19 18:21
likeyousmile: 聯合多一點醫護,一起蒐集證據,一起爆料608F 06/19 18:21
tacoux: 幹你娘勒,太扯了吧,花錢買假609F 06/19 18:21
leekidenet: 新北市檢舉無效啊 沒看到剪綵倫在照片上嗎 有可能拿自610F 06/19 18:21
leekidenet: 己的石頭砸自己的腳嗎?
loveyanzi03: 推612F 06/19 18:21
Doracacazin: 內部先團結起來 我說真的613F 06/19 18:21
kemusi: 八掛回來了614F 06/19 18:21
tryitover: 幫高調615F 06/19 18:22
likeyousmile: 不趁現在搞大,永遠沒機會616F 06/19 18:22
as976431: 很多醫院都這樣617F 06/19 18:22
avans: 推!618F 06/19 18:22
rain150148: 推619F 06/19 18:23
yayajohn: 推620F 06/19 18:23
dowbane: 內文各種譬喻讓人看的很累,但還是要爆621F 06/19 18:23
addison123: 台灣的高醫療水準真的是建立在這些人身上的 推爆讓這622F 06/19 18:23
addison123: 些卑鄙無恥的接受制裁
GOOGLEISGOD: 黑心企業624F 06/19 18:23
sionxp: 真扯625F 06/19 18:24
TohnoMinagi: 推,但是我猜沒用,醫界高層的水準很讚的,不輸法官626F 06/19 18:24
aflan5420: 發起全面地抵制遠東集團627F 06/19 18:24
thaleschou: 超讚der~~~ wwwwww628F 06/19 18:24
g8429310: 高調 怎都不檢舉阿629F 06/19 18:24
niceallright: 幫高調630F 06/19 18:25
pat1006: 嘻嘻東跟他的快樂夥伴631F 06/19 18:25
bboy13579: 鬼島節省人力成本的招式真的獨步全球632F 06/19 18:25
Trulli: 推633F 06/19 18:26
grezod: 如果真的幫推634F 06/19 18:26
bightj40223: 付錢買假635F 06/19 18:26
interchange: 推636F 06/19 18:26
Asucks: !!!!!!!!!!!!!!!!!!!!!!!!!!!!!!!!!!!!!!!!!637F 06/19 18:27
SeTeVen: 柯P下臺638F 06/19 18:27
asdg62558: 幫高調...有夠噁心639F 06/19 18:27
hsub123: 推640F 06/19 18:27
z0929197823: 幫高潮641F 06/19 18:27
ivyfisher: 幫高642F 06/19 18:27
jdklas: 跪求護理長臉書643F 06/19 18:28
willion003: 幹付薪假超狂der,唉可惜媒體都裝死644F 06/19 18:28
cavabien: pushing645F 06/19 18:28
ryankkk: 幹 高調646F 06/19 18:28
fday: 之前老闆說過,這就是企業文化,然後該老闆升官順暢647F 06/19 18:28
omegajoker: 高調推 妓者有種快來抄648F 06/19 18:28
mike40709: 高調649F 06/19 18:28
maybecry: 高調650F 06/19 18:28
fday: 遠東企業應該都是這樣了651F 06/19 18:28
LKJM: 高調652F 06/19 18:29
luckywind: 推~真的誇張~一點人性都沒653F 06/19 18:30
ginsengwolf: 誇張654F 06/19 18:30
johnny12728:      ╰(′▽`)╮655F 06/19 18:30
hibino1226: 樹不要皮,必死無疑,人不要臉,天下無敵!長見識了!656F 06/19 18:30
winnie28: 高調657F 06/19 18:30
ab19857491: 亞東技院有沒有卦??  一次讓噓噓東倒658F 06/19 18:30
Tsubasa1008: 付薪假 真的屌659F 06/19 18:30
shindi: 高調推660F 06/19 18:31
pro33342: 948794狂661F 06/19 18:31
yyane0308: 高調662F 06/19 18:31
Only121: 高調663F 06/19 18:31
cowhand: 推高調 希望護理師團結站出來664F 06/19 18:32
PCSH120: 幹高調啦665F 06/19 18:32
jade0111: 推666F 06/19 18:33
facewind: 推667F 06/19 18:33
iljie: 玩不贏財團的,看ETC案就知道了668F 06/19 18:33
hhhhh11: 有沒有不自殺聲明669F 06/19 18:33
awspo135: 推670F 06/19 18:33
a2001555: 垃圾671F 06/19 18:33
bee999999999: 政府 財團 魚幫水 水幫魚嘛 沒事的沒事的672F 06/19 18:33
MermaidFA: 有夠誇張673F 06/19 18:33
belled705652: 推674F 06/19 18:34
DMPBBOY: https://m.imgur.com/Rsh0yKV675F 06/19 18:35
yoyozero: 高調676F 06/19 18:35
g581637: 哈哈哈677F 06/19 18:35
r7544007: 有掛有推678F 06/19 18:35
katana22: 高調679F 06/19 18:35
NEWAZEL: 不要再反串柯p了,認真的讓該負責的人負責680F 06/19 18:36
pcsh203: 推681F 06/19 18:36
Romances: 高調推,板橋幾乎都噓噓東的天下了啊682F 06/19 18:36
KittyDog: 一點兩百塊 人有必要活那麼卑賤嗎683F 06/19 18:36
shallwei: 幫高調~684F 06/19 18:36
wsx88432: 噓噓東685F 06/19 18:37
Cookie165: 高調686F 06/19 18:37
chiutepiao: 太扯687F 06/19 18:37
ckgjeff1990: 醫藥護等醫院職業各種師,常兩面不是人,真佛心來著688F 06/19 18:38
gink: 世界上真的有很多惡人呢689F 06/19 18:38
azxsdfgh12: 幫高調,也希望原po平安690F 06/19 18:38
goldenx5: 亞東不意外691F 06/19 18:39
cbr0627: 有夠垃圾692F 06/19 18:39
a890036: 幫低調 小心人身安全 護理長也是QQ693F 06/19 18:39
zzzzzken: 曾護理長好棒棒694F 06/19 18:39
imhideji: 台灣良心ww695F 06/19 18:40
czm0411: 高調696F 06/19 18:40
kazekaze: 幹這三小697F 06/19 18:40
irene160: 扯爆....698F 06/19 18:40
md183: 天才!!給推!!!!!699F 06/19 18:41
freener: 太屌了花錢買假700F 06/19 18:41
allen963: 太神啦701F 06/19 18:41
kousa: 台灣人為啥不敢罷工?702F 06/19 18:42
ujmikolp0987: 小心要準備收信了703F 06/19 18:43
zardmih: 真高級外省人欸 你敢嘴?704F 06/19 18:43
havaianas: 推705F 06/19 18:43
elegkat: 推  醫護已經夠血汗  不能再壓榨了706F 06/19 18:43
norikoseal: 幫高調707F 06/19 18:45
ruan1016: 高調708F 06/19 18:45
tudlot: 呆丸人就奴性709F 06/19 18:45
sligiho: 真黑暗710F 06/19 18:47
remprogress: 高調711F 06/19 18:47
bzchang: 推712F 06/19 18:47
ashely200809: 太威ㄌ713F 06/19 18:47
hakeepsmile: 高調714F 06/19 18:49
Neophyte: 難怪lancet 評照護品質只排45名,超血汗715F 06/19 18:49
miserymax: 推716F 06/19 18:49
Drizzle: 推717F 06/19 18:49
KNVSEOC: 這我一定推718F 06/19 18:50
missy: 高調719F 06/19 18:50
yubirch: 推720F 06/19 18:50
luffy811214: 推721F 06/19 18:51
Carl: 這。。。722F 06/19 18:52
midori06470: 高調723F 06/19 18:52
devilkool: 高調啊啊啊啊724F 06/19 18:52
soyokaza: 沒有極限725F 06/19 18:53
NmoG: 高調726F 06/19 18:53
pigfist1113: 幹這太誇張了吧727F 06/19 18:53
tsungg: 垃圾肥仔噓噓冬728F 06/19 18:54
ss5141318: 高調729F 06/19 18:54
percycool: 高調 那幾位護理長是醫院的米蟲吧730F 06/19 18:54
a5648183: 幹,高調推,踏馬ㄉ9.2黨國江浙財閥真吃人不吐骨頭 凸731F 06/19 18:55
jackie96051: 高調732F 06/19 18:55
jlincredible: 其實蠻常見的733F 06/19 18:56
cheniuan: 高調推734F 06/19 18:57
Neji: 幫高調,再這樣搞平民就沒有醫生護士可看病了735F 06/19 18:57
oct63227: 不自殺聲明呢736F 06/19 18:57

--
※ 看板: Gossiping 文章推薦值: 21 目前人氣: 0 累積人氣: 17018 
※ 本文也出現在看板: PttHot K_hot
※ 推薦文章:
1樓 時間: 2017-06-19 16:58:46 (台灣)
  06-19 16:58 TW
高調
2樓 時間: 2017-06-19 17:29:52 (台灣)
  06-19 17:29 TW
亞東 GG了
3樓 時間: 2017-06-19 17:52:11 (台灣)
  06-19 17:52 TW
已幫高調
4樓 時間: 2017-06-19 17:53:32 (台灣)
  06-19 17:53 TW
怎麼可以垃圾到這種地步
5樓 時間: 2017-06-19 18:45:55 (台灣)
  06-19 18:45 TW
高調一下!靠黨國關係起家的好企業~
6樓 時間: 2017-06-19 19:04:07 (台灣)
  06-19 19:04 TW
沒有護理師去做是最好的方式
7樓 時間: 2017-06-19 19:17:19 (台灣)
  06-19 19:17 TW
幫高調
8樓 時間: 2017-06-19 20:35:06 (台灣)
+2 06-19 20:35 TW
這...黨國企業,扯什麼民粹 別人生的小孩都不是小孩就對了?把醫療體系工時壓低,有什麼好處嗎?為了利益的企業=.=
9樓 時間: 2017-06-19 21:40:02 (台灣)
  06-19 21:40 TW
因為有油水
10樓 時間: 2017-06-19 21:49:32 (台灣)
     (編輯過) TW
操他媽機掰 你要是被吉 我們一定幫你!! 黨國關係一路至今悲哀至極爛入骨髓 不弄死他們真的不行 操他個快樂台灣東 比海景第一排還可惡 操
11樓 時間: 2017-06-19 22:16:53 (台灣)
+2 06-19 22:16 TW
事實推 另外補個掛 上班還規定裡面一定要穿白衣、襪子只能白、黑或膚色,頭髮必須符合東方人髮色,否則扣點!
12樓 時間: 2017-06-19 22:26:13 (台灣)
  06-19 22:26 TW
奴隸管理模式
13樓 時間: 2017-06-19 22:27:35 (台灣)
  06-19 22:27 TW
遠東日常
14樓 時間: 2017-06-19 22:41:14 (台灣)
  06-19 22:41 TW
有點意外 買假也太扯
15樓 時間: 2017-06-19 22:55:24 (台灣)
  06-19 22:55 TW
...............唯有慣老闆能超越慣老闆
16樓 時間: 2017-06-19 23:02:57 (台灣)
  06-19 23:02 TW
噓噓東是祭央乂的麻吉你敢嘴?當初ETC一上被罵翻,後來被翻出來是祭央乂力保過關後覺青就都消失了,人家顏色正確a
17樓 時間: 2017-06-19 23:28:55 (台灣)
  06-19 23:28 TW
最愛壓榨台灣人跟撈台灣油水~~~
18樓 時間: 2017-06-19 23:54:57 (台灣)
  06-19 23:54 TW
有掛推個
19樓 時間: 2017-06-20 00:30:46 (台灣)
  06-20 00:30 TW
壓榨只能擠出肉沒有汁
20樓 時間: 2017-06-20 02:31:19 (台灣)
  06-20 02:31 TW
淚推
21樓 時間: 2017-06-20 05:25:32 (台灣)
  06-20 05:25 TW
付薪假>這是新梗啊~
22樓 時間: 2017-06-20 07:01:07 (台灣)
  06-20 07:01 TW
亂扣薪其實很多中小企業都這樣做 可是勞檢一直被動 台灣勞工又沒有吹哨者保護 所以經常處於祇有離職時才敢爆料 台灣真的是慣老闆天堂 換了新國民黨上台也是一樣
23樓 時間: 2017-06-20 07:29:42 (台灣)
  06-20 07:29 TW
就集體請辭...不然勒.
24樓 時間: 2017-06-20 07:58:22 (台灣)
  06-20 07:58 TW
徐董 你敢嘴  等等叫你去花蓮顧魚池
25樓 時間: 2017-06-20 12:13:26 (台灣)
     (編輯過) TW
···
虛虛東,在阿扁時期更囂張,ETC貪污,官商勾結弊案,綠綠貪官起訴判刑,照道理,應該要廢標,重新開標,結果還可以順利拿到標案,而且還使用那個紅外線,爛系統…打敗了先進的RFID系統…非常的神奇…
完全是遠雄的翻版,當時北市三次廢標都沒有用,阿扁全部都駁回,(遠雄當時為阿扁的總統府顧問)
26樓 時間: 2017-06-20 12:56:58 (台灣)
  06-20 12:56 TW
新發明阿,付錢就能休假了,這還需要一例一休嗎?還在擔心休假不夠嗎?
菜英文整個遜掉了阿,這發明應該要得諾貝爾獎,以後勞工不必擔心過勞死囉!
06-20 13:51 TW
angel5566138:[自己刪除]
28樓 時間: 2017-06-20 20:02:13 (台灣)
  06-20 20:02 TW
···
超越無薪假的發明---付薪假是三小
29樓 時間: 2017-06-20 23:24:10 (台灣)
  06-20 23:24 TW
看到噓噓東 立即能明白何謂“為富不仁”
r)回覆 e)編輯 d)刪除 M)不收藏 ^x)轉錄 同主題: =)首篇 [)上篇 ])下篇